This is the latest recevied weather packets stored in our database for station/object RN1M-13. If no packets are shown the sender has not sent any weather packets the latest 10 day(s).
| Time | Temp. | Humidity | Pressure | Rain* | Wind** | Luminosity | Snow |
|---|---|---|---|---|---|---|---|
| 1777643289 | 16.67° C | 100% | 1016.7 hPa | - | - | - | - |
| 1777642389 | 16.11° C | 100% | 1016.9 hPa | - | - | - | - |
| 1777641489 | 16.11° C | 100% | 1016.9 hPa | - | - | - | - |
| 1777638789 | 16.67° C | 100% | 1017.2 hPa | - | - | - | - |
| 1777637889 | 18.89° C | 100% | 1017.2 hPa | - | - | - | - |
| 1777636989 | 16.11° C | 100% | 1017.7 hPa | - | - | - | - |
| 1777635188 | 16.11° C | 100% | 1017.9 hPa | - | - | - | - |
| 1777634288 | 18.33° C | 100% | 1017.9 hPa | - | - | - | - |
| 1777633390 | 16.11° C | 100% | 1018.3 hPa | - | - | - | - |
| 1777632496 | 15.56° C | 100% | 1018.5 hPa | - | - | - | - |
| 1777631596 | 15° C | 100% | 1018.6 hPa | - | - | - | - |
| 1777630696 | 14.44° C | 100% | 1018.8 hPa | - | - | - | - |
| 1777629795 | 12.78° C | 100% | 1019 hPa | - | - | - | - |
| 1777628895 | 13.89° C | 100% | 1018.8 hPa | - | - | - | - |
| 1777628026 | 12.78° C | 100% | 1018.9 hPa | - | - | - | - |
| 1777627995 | 12.78° C | 100% | 1018.9 hPa | - | - | - | - |
| 1777627095 | 12.78° C | 100% | 1018.8 hPa | - | - | - | - |
| 1777626195 | 12.78° C | 100% | 1018.7 hPa | - | - | - | - |
| 1777625295 | 12.78° C | 100% | 1018.2 hPa | - | - | - | - |
| 1777624395 | 12.78° C | 100% | 1018.1 hPa | - | - | - | - |
| 1777623495 | 11.67° C | 100% | 1017.2 hPa | - | - | - | - |
| 1777622597 | 11.11° C | 100% | 1017.2 hPa | - | - | - | - |
| 1777621701 | 11.11° C | 100% | 1016.6 hPa | - | - | - | - |
| 1777620801 | 11.67° C | 100% | 1016.3 hPa | - | - | - | - |
| 1777619901 | 11.67° C | 100% | 1016.1 hPa | - | - | - | - |
* Rain since midnight (hover to see other rain measurements)
** Current wind speed in m/s (hover to see current wind gust speed)